Retour au catalogue

STARLINK-36841

ActifCommunicationsVLEO
NORAD 67960·PAYLOAD·🇺🇸 United States

Lancé Feb 24, 2026 depuis Vandenberg Space Force Base

Loading…

Prochains Passages (prochaines 24 heures)

TLE

FraisSource: CelesTrak SupGP

Époque: Sep 15, 2026, 04:23 UTC

1 67960C 26037AE  26258.18312500  .00002917  00000+0  10570-3 0  2581
2 67960  43.0001 200.3774 0001358 280.6619  70.8878 15.27567887    15

Suivez STARLINK-36841 en temps réel avec AllMySat

Download on the App Store